Simultaneous Nadir Overpasses (SNOs) Predictions

Prediction of SNOs between GOES-15 and TERRA Satellite Orbit:

Table of predicted SNOs for the next 14.0 days since TLE Epoch: 7/8/2023
Index Date Time (GOES-15) GOES-15 Lat,Lon TERRA Lat,Lon Distance(km) Time Diff (sec)
1 07/09/2023 09:33:02 0.14,-176.86 1.03,-172.58 486.15 80
2 07/09/2023 21:55:54 -0.10,-177.42 -0.09,-177.50 9.14 80
3 07/12/2023 09:57:18 0.10,-179.97 0.41,-178.59 157.83 80
4 07/12/2023 22:20:08 -0.06, 179.47 0.58, 176.50 337.77 80
5 07/14/2023 22:01:11 -0.09, 177.43 -0.69,-179.63 334.01 80
6 07/15/2023 10:24:11 0.05, 176.93 -0.28, 175.42 171.21 80
7 07/17/2023 22:25:26 -0.05, 174.34 -0.08, 174.37 4.44 80
8 07/20/2023 10:29:28 0.05, 171.80 0.38, 173.29 170.31 80
9 07/20/2023 22:52:19 -0.01, 171.24 0.62, 168.38 325.64 80
